• In Schweiz
  • Länderverzeichnis
  • Für 7 Tage
  • Wassertemperatur
  • Satellitenkarten
  • Wetterkarte
  • Widgets
  • user-avatar
    Anmelden

    Stündliche Wetter Hamar

    Heute, 18 November, Samstag

    Zeit Temperatur Niederschläge Wind Luftdruck Luftfeuchtigkeit
    00:00 -1°C° 0 mm 2 m/S 731 mmHg 92%
    01:00 +1°C° 0 mm 1 m/S 730 mmHg 93%
    02:00 0°C° 0 mm 1 m/S 730 mmHg 94%
    03:00 0°C° 0 mm 1 m/S 729 mmHg 95%
    04:00 -1°C° 0 mm 1 m/S 729 mmHg 95%
    05:00 -1°C° 0 mm 1 m/S 729 mmHg 95%
    06:00 -1°C° 0 mm 1 m/S 729 mmHg 94%
    07:00 -1°C° 0 mm 1 m/S 728 mmHg 93%
    08:00 -1°C° 0 mm 1 m/S 728 mmHg 91%
    09:00 -1°C° 0 mm 1 m/S 728 mmHg 90%
    10:00 -2°C° 0 mm 0 m/S 728 mmHg 89%
    11:00 0°C° 0 mm 1 m/S 727 mmHg 88%
    12:00 0°C° 0 mm 1 m/S 727 mmHg 87%
    13:00 +1°C° 0 mm 1 m/S 727 mmHg 87%
    14:00 +1°C° 0,6 mm 1 m/S 726 mmHg 90%
    15:00 0°C° 0,6 mm 1 m/S 726 mmHg 92%
    16:00 0°C° 0,6 mm 1 m/S 726 mmHg 95%
    17:00 0°C° 0,3 mm 1 m/S 726 mmHg 95%
    18:00 0°C° 0,3 mm 1 m/S 726 mmHg 95%
    19:00 0°C° 0,3 mm 1 m/S 726 mmHg 95%
    20:00 -2°C° 0,2 mm 2 m/S 726 mmHg 94%
    21:00 -2°C° 0,2 mm 3 m/S 727 mmHg 92%
    22:00 -2°C° 0,2 mm 3 m/S 727 mmHg 90%
    23:00 -4°C° 0,1 mm 3 m/S 728 mmHg 88%

    Morgen, 19 November, Sonntag

    Zeit Temperatur Niederschläge Wind Luftdruck Luftfeuchtigkeit
    00:00 -5°C° 0,1 mm 3 m/S 729 mmHg 87%
    01:00 -5°C° 0,1 mm 3 m/S 730 mmHg 85%
    02:00 -5°C° 0 mm 3 m/S 731 mmHg 85%
    03:00 -5°C° 0 mm 3 m/S 731 mmHg 84%
    04:00 -6°C° 0 mm 3 m/S 732 mmHg 83%
    05:00 -6°C° 0 mm 3 m/S 733 mmHg 83%
    06:00 -6°C° 0 mm 3 m/S 733 mmHg 83%
    07:00 -7°C° 0 mm 3 m/S 734 mmHg 84%
    08:00 -7°C° 0 mm 3 m/S 734 mmHg 82%
    09:00 -7°C° 0 mm 3 m/S 735 mmHg 81%
    10:00 -6°C° 0 mm 2 m/S 735 mmHg 79%
    11:00 -5°C° 0 mm 2 m/S 736 mmHg 78%
    12:00 -4°C° 0 mm 2 m/S 736 mmHg 77%
    13:00 -4°C° 0 mm 2 m/S 736 mmHg 76%
    14:00 -4°C° 0 mm 2 m/S 736 mmHg 79%
    15:00 -5°C° 0 mm 2 m/S 737 mmHg 83%
    16:00 -4°C° 0 mm 1 m/S 737 mmHg 86%
    17:00 -4°C° 0 mm 1 m/S 737 mmHg 86%
    18:00 -4°C° 0 mm 1 m/S 737 mmHg 87%
    19:00 -4°C° 0 mm 1 m/S 738 mmHg 87%
    20:00 -4°C° 0 mm 1 m/S 738 mmHg 88%
    21:00 -4°C° 0 mm 1 m/S 738 mmHg 88%
    22:00 -4°C° 0 mm 1 m/S 738 mmHg 88%
    23:00 -6°C° 0 mm 1 m/S 739 mmHg 88%

    übermorgen, 20 November, Montag

    Zeit Temperatur Niederschläge Wind Luftdruck Luftfeuchtigkeit
    00:00 -6°C° 0 mm 1 m/S 739 mmHg 89%
    01:00 -6°C° 0 mm 1 m/S 739 mmHg 89%
    02:00 -6°C° 0 mm 1 m/S 739 mmHg 89%
    03:00 -6°C° 0 mm 1 m/S 740 mmHg 89%
    04:00 -6°C° 0 mm 1 m/S 740 mmHg 89%
    05:00 -6°C° 0 mm 1 m/S 740 mmHg 89%
    06:00 -7°C° 0 mm 1 m/S 740 mmHg 89%
    07:00 -7°C° 0 mm 1 m/S 740 mmHg 88%
    08:00 -6°C° 0 mm 1 m/S 740 mmHg 87%
    09:00 -6°C° 0 mm 1 m/S 740 mmHg 86%
    10:00 -6°C° 0 mm 1 m/S 741 mmHg 85%
    11:00 -5°C° 0 mm 0 m/S 740 mmHg 83%
    12:00 -5°C° 0 mm 0 m/S 740 mmHg 81%
    13:00 -4°C° 0 mm 0 m/S 740 mmHg 79%
    14:00 -5°C° 0 mm 0 m/S 740 mmHg 82%
    15:00 -5°C° 0 mm 0 m/S 740 mmHg 85%
    16:00 -6°C° 0 mm 0 m/S 740 mmHg 87%
    17:00 -6°C° 0 mm 0 m/S 740 mmHg 87%
    18:00 -6°C° 0 mm 0 m/S 740 mmHg 87%
    19:00 -6°C° 0 mm 0 m/S 740 mmHg 88%
    20:00 -6°C° 0 mm 0 m/S 740 mmHg 88%
    21:00 -6°C° 0 mm 0 m/S 740 mmHg 88%
    22:00 -6°C° 0 mm 0 m/S 741 mmHg 88%
    23:00 -6°C° 0 mm 0 m/S 741 mmHg 89%

    21 November, Dienstag

    Zeit Temperatur Niederschläge Wind Luftdruck Luftfeuchtigkeit
    00:00 -6°C° 0 mm 0 m/S 741 mmHg 89%
    01:00 -6°C° 0 mm 0 m/S 741 mmHg 90%
    02:00 -7°C° 0 mm 1 m/S 741 mmHg 90%
    03:00 -7°C° 0 mm 1 m/S 741 mmHg 90%
    04:00 -8°C° 0 mm 1 m/S 741 mmHg 91%
    05:00 -8°C° 0 mm 1 m/S 741 mmHg 91%
    06:00 -8°C° 0 mm 1 m/S 742 mmHg 91%
    07:00 -8°C° 0 mm 1 m/S 742 mmHg 91%
    08:00 -8°C° 0 mm 1 m/S 742 mmHg 90%
    09:00 -8°C° 0 mm 1 m/S 742 mmHg 89%
    10:00 -8°C° 0 mm 1 m/S 743 mmHg 88%
    11:00 -7°C° 0 mm 1 m/S 743 mmHg 86%
    12:00 -7°C° 0 mm 1 m/S 743 mmHg 84%
    13:00 -6°C° 0 mm 1 m/S 743 mmHg 83%
    14:00 -7°C° 0 mm 1 m/S 743 mmHg 85%
    15:00 -7°C° 0 mm 0 m/S 743 mmHg 87%
    16:00 -8°C° 0 mm 0 m/S 742 mmHg 89%
    17:00 -8°C° 0 mm 0 m/S 742 mmHg 89%
    18:00 -8°C° 0 mm 0 m/S 742 mmHg 89%
    19:00 -9°C° 0 mm 0 m/S 742 mmHg 90%
    20:00 -9°C° 0 mm 0 m/S 742 mmHg 90%
    21:00 -9°C° 0 mm 0 m/S 742 mmHg 90%
    22:00 -9°C° 0 mm 0 m/S 742 mmHg 90%
    23:00 -8°C° 0 mm 0 m/S 742 mmHg 90%

    22 November, Mittwoch

    Zeit Temperatur Niederschläge Wind Luftdruck Luftfeuchtigkeit
    00:00 -8°C° 0 mm 0 m/S 742 mmHg 91%
    01:00 -8°C° 0 mm 0 m/S 742 mmHg 91%
    02:00 -8°C° 0 mm 1 m/S 741 mmHg 91%
    03:00 -8°C° 0 mm 1 m/S 741 mmHg 92%
    04:00 -8°C° 0 mm 1 m/S 741 mmHg 92%
    05:00 -8°C° 0,2 mm 1 m/S 740 mmHg 92%
    06:00 -8°C° 0,2 mm 1 m/S 740 mmHg 93%
    07:00 -7°C° 0,2 mm 1 m/S 739 mmHg 93%
    08:00 -7°C° 0,3 mm 1 m/S 739 mmHg 93%
    09:00 -7°C° 0,3 mm 1 m/S 739 mmHg 93%
    10:00 -6°C° 0,3 mm 1 m/S 738 mmHg 92%
    11:00 -6°C° 0,2 mm 1 m/S 738 mmHg 92%
    12:00 -4°C° 0,2 mm 1 m/S 737 mmHg 91%
    13:00 -6°C° 0,2 mm 2 m/S 737 mmHg 91%
    14:00 -4°C° 0,4 mm 1 m/S 736 mmHg 92%
    15:00 -4°C° 0,4 mm 1 m/S 736 mmHg 93%
    16:00 -4°C° 0,4 mm 1 m/S 736 mmHg 94%
    17:00 -3°C° 0,5 mm 1 m/S 735 mmHg 95%
    18:00 -3°C° 0,5 mm 1 m/S 735 mmHg 95%
    19:00 -3°C° 0,5 mm 1 m/S 735 mmHg 95%
    20:00 -3°C° 0,5 mm 1 m/S 735 mmHg 95%
    21:00 -2°C° 0,5 mm 1 m/S 735 mmHg 96%
    22:00 -2°C° 0,5 mm 1 m/S 734 mmHg 96%
    23:00 -2°C° 0,9 mm 1 m/S 734 mmHg 96%

    23 November, Donnerstag

    Zeit Temperatur Niederschläge Wind Luftdruck Luftfeuchtigkeit
    00:00 -1°C° 0,9 mm 1 m/S 734 mmHg 97%
    01:00 -1°C° 0,9 mm 1 m/S 733 mmHg 97%
    02:00 -1°C° 1,2 mm 1 m/S 733 mmHg 97%
    03:00 0°C° 1,2 mm 1 m/S 732 mmHg 97%
    04:00 0°C° 1,2 mm 1 m/S 732 mmHg 97%
    05:00 0°C° 0,4 mm 1 m/S 732 mmHg 97%
    06:00 0°C° 0,4 mm 1 m/S 732 mmHg 97%
    07:00 +1°C° 0,4 mm 1 m/S 732 mmHg 97%
    08:00 +1°C° 0,1 mm 1 m/S 731 mmHg 97%
    09:00 +1°C° 0,1 mm 2 m/S 731 mmHg 97%
    10:00 +2°C° 0,1 mm 2 m/S 731 mmHg 97%
    11:00 +2°C° 0,1 mm 2 m/S 731 mmHg 98%
    12:00 +3°C° 0,1 mm 2 m/S 730 mmHg 98%
    13:00 +3°C° 0,1 mm 2 m/S 729 mmHg 99%
    14:00 +4°C° 0,6 mm 2 m/S 729 mmHg 99%
    15:00 +3°C° 0,6 mm 3 m/S 728 mmHg 99%
    16:00 +3°C° 0,6 mm 3 m/S 727 mmHg 98%
    17:00 +3°C° 1 mm 3 m/S 726 mmHg 98%
    18:00 +4°C° 1 mm 3 m/S 726 mmHg 98%
    19:00 +4°C° 1 mm 4 m/S 725 mmHg 98%
    20:00 +4°C° 0,3 mm 4 m/S 725 mmHg 98%
    21:00 +4°C° 0,3 mm 4 m/S 725 mmHg 98%
    22:00 +5°C° 0,3 mm 4 m/S 725 mmHg 97%
    23:00 +4°C° 0 mm 4 m/S 726 mmHg 95%
    Mehr zeigen